TVF7142 LFPO-LFMN

Flight info

Callsign TVF7142
Flight time N/A
Altitude 33000
Route LATRA DCT LAMUT DCT UTUVA DCT LERGA DCT LIQID DCT LATAM DCT TUNUR DCT NISAR
Aircraft B738/M-SDE2E3FGHIRWXY/LB1

Departure

Time 2026-05-07 08:56
Airport Paris-Orly Airport (LFPO)

Arrival

Time N/A
Airport Nice-Côte d'Azur Airport (LFMN)
Time Latitude Longitude Altitude Speed Heading
2026-05-07 08:34 48.72435 2.36691 285 ft 0 kts 202°
2026-05-07 08:46 48.72438 2.36692 285 ft 2 kts 202°
2026-05-07 08:46 48.72452 2.36701 285 ft 2 kts 201°
2026-05-07 08:46 48.72465 2.36709 285 ft 2 kts 202°
2026-05-07 08:47 48.72479 2.36718 286 ft 2 kts 202°
2026-05-07 08:47 48.72493 2.36726 286 ft 2 kts 202°
2026-05-07 08:47 48.72507 2.36735 286 ft 2 kts 206°
2026-05-07 08:47 48.72518 2.36750 287 ft 2 kts 239°
2026-05-07 08:48 48.72522 2.36762 287 ft 1 kts 254°
2026-05-07 08:48 48.72523 2.36771 288 ft 0 kts 255°
2026-05-07 08:50 48.72522 2.36768 287 ft 1 kts 255°
2026-05-07 08:50 48.72514 2.36728 286 ft 7 kts 252°
2026-05-07 08:50 48.72494 2.36616 285 ft 13 kts 255°
2026-05-07 08:50 48.72465 2.36467 284 ft 15 kts 255°
2026-05-07 08:51 48.72437 2.36292 282 ft 16 kts 270°
2026-05-07 08:51 48.72492 2.36148 282 ft 17 kts 260°
2026-05-07 08:51 48.72467 2.35973 282 ft 16 kts 269°
2026-05-07 08:51 48.72479 2.35802 281 ft 16 kts 270°
2026-05-07 08:52 48.72516 2.35688 279 ft 12 kts 347°
2026-05-07 08:52 48.72616 2.35660 278 ft 16 kts 349°
2026-05-07 08:52 48.72728 2.35613 279 ft 16 kts 342°
2026-05-07 08:52 48.72839 2.35565 280 ft 17 kts 344°
2026-05-07 08:53 48.72966 2.35527 279 ft 19 kts
2026-05-07 08:53 48.73059 2.35655 282 ft 17 kts 57°
2026-05-07 08:53 48.73119 2.35796 284 ft 15 kts 56°
2026-05-07 08:53 48.73175 2.35929 285 ft 15 kts 59°
2026-05-07 08:54 48.73236 2.36073 285 ft 17 kts 49°
2026-05-07 08:54 48.73343 2.36074 285 ft 15 kts 358°
2026-05-07 08:54 48.73421 2.36097 287 ft 7 kts
2026-05-07 08:54 48.73424 2.36097 287 ft 0 kts
2026-05-07 08:55 48.73445 2.36097 287 ft 10 kts 352°
2026-05-07 08:55 48.73512 2.35972 288 ft 22 kts 253°
2026-05-07 08:55 48.73367 2.35561 284 ft 85 kts 242°
2026-05-07 08:55 48.72922 2.34316 330 ft 176 kts 242°
2026-05-07 08:56 48.72307 2.32812 1396 ft 172 kts 241°
2026-05-07 08:56 48.71801 2.31237 2589 ft 172 kts 246°
2026-05-07 08:56 48.71221 2.29642 3491 ft 182 kts 240°
2026-05-07 08:56 48.70472 2.28025 4336 ft 197 kts 236°
2026-05-07 08:57 48.69678 2.26249 5169 ft 214 kts 238°
2026-05-07 08:57 48.68841 2.24310 5975 ft 235 kts 238°
2026-05-07 08:57 48.67929 2.22191 6975 ft 250 kts 238°
2026-05-07 08:57 48.66964 2.19944 8040 ft 265 kts 237°
2026-05-07 08:58 48.65660 2.17903 9077 ft 283 kts 213°
2026-05-07 08:58 48.63770 2.17001 10003 ft 300 kts 185°
2026-05-07 08:58 48.61731 2.17500 10076 ft 300 kts 156°
2026-05-07 08:58 48.60130 2.19419 10052 ft 295 kts 131°
2026-05-07 08:59 48.58692 2.21746 10047 ft 314 kts 139°
2026-05-07 08:59 48.56825 2.23728 10053 ft 350 kts 148°
2026-05-07 08:59 48.54703 2.25645 10034 ft 351 kts 150°
2026-05-07 08:59 48.52663 2.27442 10046 ft 331 kts 150°
2026-05-07 09:00 48.50732 2.29126 10046 ft 312 kts 150°
2026-05-07 09:00 48.48889 2.30713 10047 ft 296 kts 151°
2026-05-07 09:00 48.47039 2.31993 10097 ft 301 kts 162°
2026-05-07 09:00 48.44970 2.32965 10887 ft 324 kts 163°
2026-05-07 09:01 48.42763 2.34041 11589 ft 350 kts 162°
2026-05-07 09:01 48.40416 2.35197 12625 ft 363 kts 162°
2026-05-07 09:01 48.37995 2.36372 13778 ft 372 kts 162°
2026-05-07 09:01 48.35537 2.37560 14934 ft 379 kts 162°
2026-05-07 09:02 48.33030 2.38771 16062 ft 385 kts 162°